| time (UTC) | temp F | wind direction | speed knots | gust knots | rain 1hr in | rain 24hr in | rain mn in | humidity % | barometer mb |
| 20260504214535 | 64 | 203 | 0.9 | 7.8 | 0.00 | 0.00 | 0.00 | 30 | 1008.4 |
| 20260504213047 | 61 | 87 | 1.7 | 5.2 | 0.00 | 0.00 | 0.00 | 30 | 1008.5 |
| 20260504211537 | 60 | 108 | 3.5 | 7.8 | 0.00 | 0.00 | 0.00 | 36 | 1008.9 |
| 20260504210033 | 58 | 142 | 5.2 | 11.3 | 0.00 | 0.00 | 0.00 | 41 | 1009.2 |
| 20260504204532 | 59 | 234 | 13.9 | 19.1 | 0.00 | 0.00 | 0.00 | 35 | 1009.5 |
| 20260504203044 | 61 | 301 | 4.3 | 14.8 | 0.00 | 0.00 | 0.00 | 35 | 1009.3 |
| 20260504201531 | 64 | 347 | 5.2 | 11.3 | 0.00 | 0.00 | 0.00 | 31 | 1008.9 |
| 20260504200030 | 64 | 270 | 3.5 | 8.7 | 0.00 | 0.00 | 0.00 | 26 | 1008.5 |
| 20260504194537 | 64 | 68 | 3.5 | 7.0 | 0.00 | 0.00 | 0.00 | 26 | 1008.6 |
| 20260504193027 | 64 | 70 | 2.6 | 5.2 | 0.00 | 0.00 | 0.00 | 30 | 1008.7 |
| 20260504191535 | 65 | 44 | 1.7 | 5.2 | 0.00 | 0.00 | 0.00 | 28 | 1009.1 |
| 20260504190023 | 64 | 6 | 1.7 | 7.0 | 0.00 | 0.00 | 0.00 | 30 | 1009.3 |
| 20260504184521 | 64 | 249 | 4.3 | 6.1 | 0.00 | 0.00 | 0.00 | 29 | 1009.4 |
| 20260504183019 | 64 | 240 | 0.9 | 7.0 | 0.00 | 0.00 | 0.00 | 27 | 1009.6 |
| 20260504181518 | 64 | 242 | 1.7 | 5.2 | 0.00 | 0.00 | 0.00 | 31 | 1009.8 |
| 20260504180019 | 63 | 141 | 2.6 | 4.3 | 0.00 | 0.00 | 0.00 | 29 | 1009.9 |
| 20260504174510 | 61 | 134 | 0.9 | 2.6 | 0.00 | 0.00 | 0.00 | 44 | 1010.0 |
| 20260504173006 | 58 | 235 | 1.7 | 5.2 | 0.00 | 0.00 | 0.00 | 52 | 1010.2 |
| 20260504171502 | 57 | 179 | 2.6 | 6.1 | 0.00 | 0.00 | 0.00 | 53 | 1010.3 |
| 20260504100111 | 39 | 38 | 0.0 | 0.9 | 0.00 | 0.00 | 0.00 | 67 | 1011.5 |
| 20260504081551 | 41 | 137 | 0.0 | 0.9 | 0.00 | 0.00 | 0.00 | 65 | 1011.8 |
| 20260504044526 | 51 | 134 | 2.6 | 4.3 | 0.00 | 0.00 | 0.00 | 45 | 1012.5 |
| 20260504043027 | 54 | 72 | 3.5 | 5.2 | 0.00 | 0.00 | 0.00 | 39 | 1012.5 |
| 20260504041525 | 53 | 65 | 6.1 | 6.1 | 0.00 | 0.00 | 0.00 | 40 | 1012.5 |
| 20260504040039 | 55 | 70 | 4.3 | 6.1 | 0.00 | 0.00 | 0.00 | 36 | 1012.5 |
| 20260504034525 | 56 | 91 | 4.3 | 6.1 | 0.00 | 0.00 | 0.00 | 35 | 1012.4 |
| 20260504033023 | 56 | 86 | 4.3 | 6.1 | 0.00 | 0.00 | 0.00 | 34 | 1012.4 |
| 20260504031523 | 56 | 63 | 5.2 | 6.1 | 0.00 | 0.00 | 0.00 | 33 | 1012.2 |
| 20260504030022 | 57 | 91 | 1.7 | 5.2 | 0.00 | 0.00 | 0.00 | 32 | 1012.0 |
| 20260504024521 | 57 | 136 | 3.5 | 5.2 | 0.00 | 0.00 | 0.00 | 31 | 1012.0 |
| 20260504023020 | 60 | 115 | 3.5 | 4.3 | 0.00 | 0.00 | 0.00 | 27 | 1011.8 |
| 20260504021520 | 61 | 108 | 2.6 | 3.5 | 0.00 | 0.00 | 0.00 | 27 | 1011.6 |
| 20260504020019 | 63 | 271 | 0.0 | 4.3 | 0.00 | 0.00 | 0.00 | 26 | 1011.7 |
| 20260504014524 | 63 | 278 | 6.1 | 9.6 | 0.00 | 0.00 | 0.00 | 25 | 1011.7 |
| 20260504013019 | 63 | 291 | 10.4 | 12.2 | 0.00 | 0.00 | 0.00 | 24 | 1011.8 |
| 20260504011516 | 64 | 261 | 5.2 | 10.4 | 0.00 | 0.00 | 0.00 | 29 | 1011.9 |
| 20260504010015 | 64 | 273 | 7.8 | 13.0 | 0.00 | 0.00 | 0.00 | 28 | 1011.8 |
| 20260504004514 | 65 | 257 | 10.4 | 13.9 | 0.00 | 0.00 | 0.00 | 22 | 1012.0 |
| 20260504003012 | 65 | 255 | 7.8 | 13.9 | 0.00 | 0.00 | 0.00 | 24 | 1012.0 |
| 20260504001511 | 66 | 282 | 11.3 | 13.9 | 0.00 | 0.00 | 0.00 | 24 | 1012.1 |
| 20260504000011 | 65 | 261 | 7.8 | 14.8 | 0.00 | 0.00 | 0.00 | 22 | 1012.2 |
| 20260503234509 | 67 | 293 | 3.5 | 14.8 | 0.00 | 0.00 | 0.00 | 20 | 1012.3 |
| 20260503233007 | 65 | 280 | 8.7 | 14.8 | 0.00 | 0.00 | 0.00 | 19 | 1012.3 |
| 20260503231507 | 67 | 283 | 13.9 | 21.7 | 0.00 | 0.00 | 0.00 | 20 | 1012.3 |
| 20260503230006 | 66 | 295 | 6.1 | 17.4 | 0.00 | 0.00 | 0.00 | 20 | 1012.5 |
| 20260503224507 | 66 | 238 | 13.9 | 21.7 | 0.00 | 0.00 | 0.00 | 19 | 1012.6 |
| 20260503223002 | 66 | 261 | 8.7 | 20.9 | 0.00 | 0.00 | 0.00 | 18 | 1012.7 |
| 20260503221501 | 66 | 241 | 14.8 | 20.0 | 0.00 | 0.00 | 0.00 | 21 | 1012.8 |
| 20260503220059 | 66 | 243 | 10.4 | 20.9 | 0.00 | 0.00 | 0.00 | 22 | 1013.1 |